QPF
0.03 0.03 0.03 0.02 0.01 0.03 0.04 0.02 0.02 0.04 0.06 0.07 0.07 0.09 0.11 0.17 0.17 0.16 0.15 0.16 0.12 0.08 0.06 0.05 0.04 0.04 0.04 0.03 0.02 0.01 0.01 0.01 0.01 0.01 0.00 0.00 0.00 0.00 0.00 0.00 0.01 0.02 0.01 0.01
0.02 0.02 0.02 0.03 0.03 0.03 0.03 0.02 0.02 0.04 0.05 0.05 0.05 0.06 0.09 0.14 0.12 0.09 0.07 0.10 0.10 0.07 0.05 0.04 0.02 0.02 0.02 0.02 0.01 0.01 0.01 0.01 0.01 0.01 0.00 0.00 0.00 0.01 0.01 0.01 0.01 0.02 0.01 0.01
0.03 0.04 0.05 0.09 0.07 0.05 0.07 0.04 0.03 0.04 0.05 0.04 0.04 0.05 0.05 0.07 0.07 0.06 0.05 0.06 0.07 0.05 0.04 0.03 0.02 0.01 0.01 0.01 0.01 0.01 0.01 0.01 0.01 0.01 0.00 0.00 0.01 0.01 0.01 0.02 0.02 0.03 0.03 0.02
0.02 0.06 0.11 0.10 0.06 0.05 0.09 0.07 0.06 0.05 0.04 0.03 0.03 0.05 0.05 0.06 0.05 0.05 0.06 0.06 0.05 0.04 0.04 0.03 0.03 0.02 0.02 0.02 0.01 0.01 0.01 0.01 0.01 0.01 0.01 0.01 0.01 0.01 0.02 0.02 0.03 0.03 0.03 0.03
0.05 0.07 0.08 0.05 0.05 0.04 0.06 0.07 0.06 0.05 0.05 0.05 0.05 0.05 0.06 0.06 0.05 0.05 0.05 0.04 0.03 0.03 0.03 0.03 0.03 0.03 0.03 0.02 0.02 0.02 0.01 0.01 0.01 0.01 0.01 0.01 0.01 0.02 0.02 0.01 0.02 0.03 0.03 0.02
0.06 0.06 0.07 0.05 0.04 0.02 0.03 0.05 0.05 0.04 0.05 0.05 0.06 0.06 0.07 0.08 0.08 0.09 0.08 0.05 0.03 0.02 0.02 0.02 0.02 0.03 0.03 0.03 0.02 0.02 0.02 0.01 0.01 0.01 0.01 0.01 0.01 0.01 0.02 0.01 0.01 0.02 0.03 0.02
0.05 0.06 0.06 0.04 0.02 0.02 0.03 0.04 0.04 0.04 0.05 0.05 0.05 0.07 0.10 0.07 0.05 0.05 0.06 0.05 0.03 0.02 0.01 0.01 0.01 0.02 0.02 0.03 0.02 0.01 0.01 0.01 0.01 0.01 0.01 0.01 0.01 0.01 0.01 0.01 0.01 0.01 0.01 0.01
0.05 0.06 0.04 0.02 0.01 0.03 0.04 0.04 0.04 0.04 0.04 0.04 0.04 0.07 0.10 0.06 0.04 0.04 0.03 0.02 0.03 0.03 0.02 0.02 0.02 0.02 0.02 0.02 0.02 0.01 0.01 0.01 0.02 0.01 0.01 0.01 0.01 0.01 0.01 0.01 0.01 0.02 0.01 0.00
0.04 0.04 0.03 0.01 0.01 0.03 0.04 0.04 0.04 0.03 0.03 0.03 0.03 0.03 0.04 0.03 0.04 0.03 0.02 0.02 0.02 0.04 0.04 0.03 0.02 0.02 0.02 0.02 0.02 0.02 0.02 0.02 0.02 0.02 0.01 0.01 0.01 0.01 0.01 0.01 0.01 0.01 0.01 0.01
0.02 0.02 0.01 0.01 0.01 0.02 0.02 0.02 0.02 0.02 0.02 0.01 0.01 0.01 0.02 0.02 0.02 0.02 0.01 0.02 0.02 0.02 0.04 0.03 0.02 0.02 0.02 0.02 0.03 0.04 0.05 0.05 0.03 0.02 0.01 0.01 0.01 0.00 0.00 0.00 0.01 0.01 0.01 0.01
0.02 0.02 0.01 0.01 0.01 0.01 0.01 0.02 0.02 0.01 0.02 0.01 0.01 0.01 0.01 0.01 0.01 0.01 0.01 0.01 0.01 0.01 0.02 0.01 0.01 0.01 0.01 0.02 0.03 0.04 0.04 0.03 0.02 0.01 0.00 0.00 0.00 0.00 0.00 0.00 0.00 0.00 0.00 0.00
0.03 0.02 0.02 0.01 0.01 0.01 0.01 0.01 0.01 0.00 0.01 0.02 0.02 0.01 0.01 0.01 0.01 0.01 0.00 0.01 0.01 0.01 0.01 0.01 0.01 0.01 0.00 0.01 0.01 0.01 0.01 0.01 0.01 0.01 0.00 0.00 0.00 0.00 0.00 0.00 0.00 0.00 0.00 0.01
0.02 0.02 0.01 0.02 0.01 0.01 0.01 0.01 0.01 0.01 0.00 0.01 0.03 0.02 0.02 0.01 0.01 0.01 0.01 0.01 0.01 0.01 0.01 0.01 0.00 0.00 0.00 0.00 0.00 0.00 0.00 0.00 0.01 0.01 0.01 0.00 0.00 0.00 0.00 0.00 0.00 0.00 0.00 0.00
0.02 0.02 0.01 0.01 0.01 0.01 0.01 0.01 0.01 0.01 0.00 0.01 0.02 0.02 0.02 0.01 0.01 0.02 0.02 0.02 0.01 0.01 0.01 0.01 0.01 0.00 0.00 0.00 0.00 0.00 0.00 0.00 0.00 0.01 0.00 0.00 0.00 0.00 0.00 0.00 0.00 0.00 0.00 0.00
0.01 0.01 0.01 0.01 0.00 0.00 0.01 0.01 0.00 0.00 0.00 0.01 0.01 0.01 0.01 0.01 0.01 0.02 0.02 0.02 0.01 0.01 0.01 0.01 0.01 0.01 0.00 0.00 0.00 0.00 0.00 0.00 0.00 0.00 0.00 0.00 0.00 0.00 0.00 0.00 0.00 0.00 0.00 0.00
0.01 0.01 0.00 0.00 0.00 0.01 0.01 0.00 0.00 0.00 0.00 0.00 0.01 0.00 0.00 0.00 0.01 0.01 0.02 0.01 0.01 0.01 0.01 0.01 0.01 0.01 0.00 0.00 0.00 0.00 0.00 0.00 0.00 0.00 0.00 0.00 0.00 0.00 0.00 0.00 0.00 0.00 0.00 0.00
0.00 0.01 0.01 0.01 0.01 0.01 0.00 0.00 0.00 0.00 0.00 0.00 0.00 0.00 0.00 0.00 0.00 0.01 0.01 0.01 0.01 0.01 0.01 0.01 0.01 0.01 0.00 0.00 0.00 0.00 0.00 0.00 0.00 0.00 0.00 0.00 0.00 0.00 0.00 0.00 0.00 0.00 0.00 0.00
0.00 0.00 0.02 0.02 0.01 0.01 0.00 0.00 0.00 0.00 0.00 0.00 0.00 0.00 0.01 0.01 0.01 0.01 0.01 0.01 0.01 0.02 0.01 0.01 0.01 0.01 0.00 0.00 0.00 0.00 0.00 0.00 0.00 0.00 0.00 0.00 0.00 0.00 0.00 0.00 0.00 0.00 0.00 0.00
0.00 0.00 0.01 0.01 0.02 0.01 0.01 0.00 0.00 0.00 0.00 0.00 0.00 0.00 0.00 0.01 0.01 0.01 0.01 0.01 0.01 0.01 0.01 0.01 0.01 0.01 0.01 0.00 0.00 0.00 0.00 0.00 0.00 0.00 0.00 0.00 0.00 0.00 0.00 0.00 0.00 0.00 0.00 0.00
0.01 0.01 0.00 0.01 0.01 0.01 0.01 0.00 0.00 0.00 0.00 0.00 0.00 0.00 0.00 0.01 0.00 0.01 0.01 0.01 0.01 0.01 0.01 0.01 0.01 0.01 0.01 0.00 0.00 0.00 0.00 0.00 0.00 0.00 0.00 0.00 0.00 0.00 0.00 0.00 0.00 0.00 0.00 0.00
0.01 0.01 0.01 0.01 0.02 0.02 0.01 0.00 0.00 0.00 0.00 0.00 0.00 0.00 0.00 0.00 0.00 0.01 0.02 0.02 0.01 0.01 0.01 0.01 0.01 0.01 0.01 0.00 0.00 0.00 0.00 0.00 0.00 0.00 0.00 0.00 0.00 0.00 0.00 0.00 0.00 0.00 0.00 0.00
0.01 0.00 0.00 0.01 0.02 0.02 0.01 0.00 0.00 0.00 0.00 0.00 0.00 0.00 0.00 0.01 0.00 0.00 0.02 0.03 0.02 0.02 0.02 0.01 0.01 0.01 0.01 0.01 0.00 0.00 0.00 0.00 0.00 0.00 0.00 0.00 0.00 0.00 0.00 0.00 0.00 0.00 0.00 0.00
0.00 0.00 0.00 0.00 0.01 0.01 0.01 0.00 0.00 0.00 0.00 0.01 0.00 0.00 0.00 0.00 0.00 0.00 0.01 0.03 0.03 0.02 0.02 0.01 0.01 0.01 0.01 0.01 0.00 0.00 0.00 0.00 0.00 0.00 0.00 0.00 0.00 0.00 0.00 0.00 0.00 0.00 0.00 0.00
0.00 0.00 0.00 0.00 0.00 0.00 0.00 0.00 0.00 0.00 0.01 0.01 0.01 0.01 0.00 0.01 0.01 0.00 0.01 0.01 0.01 0.01 0.02 0.01 0.00 0.00 0.00 0.00 0.00 0.00 0.00 0.00 0.00 0.00 0.00 0.00 0.00 0.00 0.00 0.00 0.00 0.00 0.00 0.00
0.00 0.00 0.00 0.00 0.00 0.00 0.00 0.00 0.00 0.01 0.01 0.01 0.01 0.01 0.01 0.01 0.01 0.01 0.00 0.01 0.01 0.01 0.01 0.00 0.00 0.00 0.00 0.00 0.00 0.00 0.00 0.00 0.00 0.00 0.00 0.00 0.00 0.00 0.00 0.00 0.00 0.00 0.00 0.00
0.00 0.00 0.00 0.00 0.00 0.00 0.00 0.00 0.00 0.00 0.00 0.00 0.01 0.01 0.01 0.02 0.02 0.01 0.00 0.01 0.01 0.00 0.00 0.00 0.00 0.00 0.00 0.00 0.00 0.00 0.00 0.00 0.00 0.00 0.00 0.00 0.00 0.00 0.00 0.00 0.00 0.00 0.01 0.01
0.00 0.00 0.00 0.00 0.00 0.00 0.00 0.00 0.00 0.00 0.01 0.00 0.00 0.00 0.00 0.01 0.01 0.01 0.00 0.01 0.00 0.00 0.00 0.00 0.00 0.00 0.00 0.00 0.00 0.00 0.00 0.00 0.00 0.00 0.00 0.00 0.00 0.00 0.00 0.01 0.01 0.01 0.01 0.01
MSLP
1014.23 1014.25 1014.24 1014.24 1014.29 1014.42 1014.61 1014.86 1015.14 1015.41 1015.65 1015.82 1015.95 1016.02 1016.08 1016.15 1016.26 1016.45 1016.70 1017.04 1017.42 1017.83 1018.23 1018.58 1018.87 1019.07 1019.18 1019.23 1019.22 1019.19 1019.16 1019.16 1019.19 1019.27 1019.38 1019.52 1019.66 1019.80 1019.90 1019.96 1019.96 1019.91 1019.80 1019.65
1014.25 1014.20 1014.09 1013.97 1013.90 1013.91 1014.03 1014.25 1014.56 1014.94 1015.35 1015.76 1016.13 1016.47 1016.75 1017.00 1017.22 1017.44 1017.66 1017.89 1018.14 1018.40 1018.64 1018.86 1019.04 1019.17 1019.25 1019.28 1019.29 1019.29 1019.29 1019.32 1019.38 1019.48 1019.62 1019.78 1019.94 1020.09 1020.20 1020.26 1020.26 1020.20 1020.08 1019.91
1014.39 1014.28 1014.10 1013.90 1013.74 1013.68 1013.75 1013.97 1014.33 1014.81 1015.36 1015.94 1016.51 1017.04 1017.48 1017.85 1018.13 1018.35 1018.52 1018.65 1018.76 1018.87 1018.98 1019.08 1019.17 1019.25 1019.31 1019.36 1019.39 1019.43 1019.47 1019.54 1019.63 1019.75 1019.90 1020.06 1020.22 1020.37 1020.48 1020.53 1020.53 1020.46 1020.33 1020.14
1014.61 1014.46 1014.23 1013.98 1013.78 1013.69 1013.75 1013.97 1014.37 1014.91 1015.56 1016.26 1016.96 1017.60 1018.14 1018.57 1018.87 1019.06 1019.17 1019.20 1019.21 1019.20 1019.21 1019.23 1019.27 1019.33 1019.39 1019.46 1019.54 1019.61 1019.70 1019.79 1019.91 1020.04 1020.18 1020.34 1020.49 1020.62 1020.72 1020.76 1020.75 1020.68 1020.54 1020.35
1014.81 1014.62 1014.38 1014.12 1013.92 1013.83 1013.89 1014.13 1014.56 1015.14 1015.83 1016.59 1017.34 1018.03 1018.61 1019.05 1019.35 1019.51 1019.56 1019.54 1019.47 1019.39 1019.34 1019.32 1019.35 1019.41 1019.50 1019.61 1019.73 1019.85 1019.97 1020.09 1020.21 1020.34 1020.47 1020.60 1020.73 1020.84 1020.91 1020.95 1020.93 1020.86 1020.72 1020.54
1014.85 1014.67 1014.44 1014.21 1014.05 1013.99 1014.08 1014.35 1014.79 1015.38 1016.08 1016.84 1017.60 1018.29 1018.86 1019.29 1019.57 1019.71 1019.73 1019.67 1019.58 1019.48 1019.42 1019.40 1019.44 1019.53 1019.66 1019.81 1019.98 1020.13 1020.28 1020.41 1020.53 1020.64 1020.75 1020.86 1020.95 1021.03 1021.08 1021.10 1021.07 1021.01 1020.89 1020.73
1014.66 1014.50 1014.33 1014.17 1014.07 1014.08 1014.23 1014.53 1014.99 1015.58 1016.27 1017.00 1017.72 1018.38 1018.93 1019.34 1019.60 1019.73 1019.75 1019.70 1019.61 1019.53 1019.50 1019.51 1019.59 1019.72 1019.90 1020.09 1020.29 1020.47 1020.63 1020.77 1020.88 1020.97 1021.04 1021.11 1021.16 1021.20 1021.23 1021.23 1021.21 1021.15 1021.05 1020.91
1014.19 1014.10 1014.01 1013.95 1013.96 1014.07 1014.29 1014.65 1015.13 1015.72 1016.38 1017.08 1017.76 1018.38 1018.89 1019.28 1019.54 1019.68 1019.72 1019.70 1019.66 1019.63 1019.64 1019.70 1019.83 1020.00 1020.21 1020.44 1020.66 1020.86 1021.03 1021.15 1021.24 1021.30 1021.34 1021.36 1021.38 1021.39 1021.39 1021.37 1021.34 1021.29 1021.21 1021.10
1013.49 1013.48 1013.51 1013.59 1013.73 1013.96 1014.28 1014.71 1015.22 1015.82 1016.47 1017.13 1017.77 1018.35 1018.84 1019.22 1019.48 1019.65 1019.73 1019.76 1019.77 1019.80 1019.87 1019.99 1020.15 1020.36 1020.60 1020.85 1021.08 1021.28 1021.44 1021.55 1021.61 1021.64 1021.65 1021.63 1021.60 1021.58 1021.55 1021.51 1021.47 1021.42 1021.36 1021.27
1012.66 1012.76 1012.92 1013.14 1013.43 1013.80 1014.23 1014.74 1015.31 1015.92 1016.56 1017.20 1017.81 1018.36 1018.83 1019.21 1019.49 1019.69 1019.83 1019.92 1019.99 1020.08 1020.19 1020.35 1020.54 1020.77 1021.02 1021.27 1021.49 1021.68 1021.83 1021.92 1021.97 1021.97 1021.94 1021.89 1021.83 1021.76 1021.70 1021.65 1021.59 1021.54 1021.48 1021.41
1011.83 1012.04 1012.34 1012.71 1013.14 1013.64 1014.19 1014.78 1015.40 1016.04 1016.68 1017.30 1017.89 1018.43 1018.89 1019.28 1019.59 1019.83 1020.02 1020.16 1020.29 1020.42 1020.56 1020.74 1020.94 1021.17 1021.41 1021.64 1021.85 1022.03 1022.16 1022.24 1022.27 1022.25 1022.19 1022.11 1022.02 1021.92 1021.83 1021.75 1021.67 1021.61 1021.55 1021.48
1011.11 1011.43 1011.85 1012.36 1012.93 1013.55 1014.20 1014.86 1015.52 1016.18 1016.82 1017.43 1018.01 1018.53 1019.00 1019.41 1019.74 1020.02 1020.25 1020.43 1020.60 1020.75 1020.91 1021.09 1021.28 1021.49 1021.71 1021.92 1022.11 1022.27 1022.38 1022.45 1022.47 1022.44 1022.37 1022.27 1022.15 1022.02 1021.90 1021.79 1021.69 1021.60 1021.52 1021.45
1010.56 1010.98 1011.51 1012.13 1012.81 1013.52 1014.24 1014.95 1015.64 1016.31 1016.95 1017.55 1018.11 1018.63 1019.10 1019.52 1019.88 1020.19 1020.44 1020.66 1020.85 1021.01 1021.17 1021.34 1021.51 1021.69 1021.87 1022.05 1022.22 1022.36 1022.47 1022.54 1022.55 1022.52 1022.44 1022.33 1022.19 1022.04 1021.88 1021.74 1021.61 1021.50 1021.40 1021.32
1010.16 1010.67 1011.29 1012.00 1012.76 1013.54 1014.30 1015.04 1015.73 1016.39 1017.01 1017.60 1018.14 1018.65 1019.12 1019.55 1019.93 1020.26 1020.54 1020.78 1020.98 1021.14 1021.29 1021.44 1021.58 1021.73 1021.88 1022.04 1022.19 1022.32 1022.43 1022.49 1022.51 1022.48 1022.41 1022.28 1022.13 1021.96 1021.78 1021.60 1021.44 1021.30 1021.18 1021.08
1009.86 1010.45 1011.15 1011.93 1012.74 1013.55 1014.33 1015.06 1015.75 1016.39 1016.98 1017.53 1018.06 1018.55 1019.02 1019.46 1019.85 1020.20 1020.50 1020.76 1020.96 1021.13 1021.27 1021.39 1021.51 1021.63 1021.76 1021.90 1022.03 1022.16 1022.27 1022.34 1022.37 1022.35 1022.27 1022.15 1021.99 1021.79 1021.59 1021.38 1021.19 1021.02 1020.88 1020.75
1009.57 1010.24 1011.00 1011.83 1012.67 1013.50 1014.27 1014.99 1015.65 1016.25 1016.81 1017.34 1017.84 1018.32 1018.78 1019.23 1019.64 1020.00 1020.33 1020.59 1020.81 1020.98 1021.12 1021.23 1021.33 1021.44 1021.55 1021.67 1021.80 1021.93 1022.04 1022.12 1022.16 1022.15 1022.07 1021.95 1021.77 1021.56 1021.33 1021.10 1020.88 1020.69 1020.52 1020.39
1009.22 1009.96 1010.79 1011.66 1012.52 1013.34 1014.11 1014.80 1015.42 1015.99 1016.51 1017.01 1017.49 1017.96 1018.42 1018.88 1019.30 1019.69 1020.04 1020.33 1020.56 1020.74 1020.88 1021.00 1021.10 1021.20 1021.30 1021.42 1021.55 1021.68 1021.79 1021.88 1021.92 1021.91 1021.84 1021.71 1021.52 1021.30 1021.05 1020.79 1020.55 1020.33 1020.15 1020.00
1008.79 1009.60 1010.47 1011.37 1012.24 1013.07 1013.81 1014.47 1015.07 1015.60 1016.10 1016.57 1017.04 1017.50 1017.97 1018.44 1018.88 1019.30 1019.67 1019.99 1020.25 1020.45 1020.61 1020.74 1020.85 1020.96 1021.07 1021.19 1021.32 1021.45 1021.56 1021.65 1021.69 1021.68 1021.60 1021.46 1021.26 1021.02 1020.75 1020.48 1020.22 1019.99 1019.79 1019.64
1008.28 1009.15 1010.07 1010.98 1011.86 1012.67 1013.40 1014.04 1014.61 1015.12 1015.59 1016.05 1016.51 1016.99 1017.46 1017.94 1018.41 1018.86 1019.26 1019.61 1019.90 1020.14 1020.33 1020.49 1020.62 1020.74 1020.87 1021.00 1021.13 1021.26 1021.37 1021.45 1021.49 1021.46 1021.37 1021.22 1021.01 1020.75 1020.47 1020.19 1019.91 1019.67 1019.46 1019.31
1007.78 1008.68 1009.62 1010.55 1011.42 1012.21 1012.91 1013.53 1014.08 1014.57 1015.03 1015.49 1015.95 1016.43 1016.92 1017.42 1017.91 1018.38 1018.82 1019.20 1019.53 1019.81 1020.03 1020.22 1020.39 1020.54 1020.68 1020.82 1020.96 1021.09 1021.20 1021.27 1021.29 1021.25 1021.15 1020.98 1020.76 1020.49 1020.20 1019.91 1019.63 1019.37 1019.17 1019.00
1007.36 1008.28 1009.21 1010.12 1010.96 1011.72 1012.39 1012.98 1013.51 1013.98 1014.44 1014.89 1015.35 1015.84 1016.34 1016.86 1017.37 1017.86 1018.33 1018.74 1019.11 1019.42 1019.69 1019.91 1020.11 1020.29 1020.46 1020.62 1020.77 1020.90 1021.00 1021.06 1021.07 1021.02 1020.90 1020.72 1020.49 1020.22 1019.92 1019.63 1019.35 1019.10 1018.89 1018.72
1007.11 1008.00 1008.89 1009.75 1010.54 1011.25 1011.88 1012.43 1012.92 1013.38 1013.82 1014.27 1014.73 1015.22 1015.73 1016.25 1016.77 1017.28 1017.76 1018.20 1018.59 1018.94 1019.24 1019.51 1019.74 1019.95 1020.15 1020.33 1020.49 1020.62 1020.72 1020.77 1020.77 1020.71 1020.59 1020.40 1020.17 1019.90 1019.61 1019.33 1019.05 1018.80 1018.60 1018.43
1007.05 1007.88 1008.70 1009.48 1010.19 1010.82 1011.39 1011.89 1012.35 1012.78 1013.20 1013.63 1014.09 1014.56 1015.07 1015.58 1016.10 1016.61 1017.09 1017.54 1017.96 1018.33 1018.66 1018.96 1019.22 1019.47 1019.69 1019.89 1020.06 1020.20 1020.30 1020.36 1020.35 1020.29 1020.16 1019.98 1019.76 1019.50 1019.23 1018.96 1018.71 1018.47 1018.28 1018.11
1007.17 1007.91 1008.63 1009.30 1009.91 1010.46 1010.94 1011.38 1011.79 1012.18 1012.58 1012.99 1013.43 1013.88 1014.37 1014.86 1015.36 1015.85 1016.32 1016.77 1017.18 1017.57 1017.92 1018.24 1018.53 1018.80 1019.05 1019.27 1019.46 1019.61 1019.72 1019.77 1019.77 1019.71 1019.60 1019.43 1019.23 1018.99 1018.75 1018.51 1018.28 1018.07 1017.89 1017.74
1007.41 1008.05 1008.65 1009.20 1009.70 1010.14 1010.54 1010.91 1011.27 1011.62 1011.98 1012.37 1012.77 1013.20 1013.65 1014.11 1014.57 1015.03 1015.48 1015.90 1016.30 1016.68 1017.03 1017.36 1017.67 1017.96 1018.23 1018.47 1018.67 1018.83 1018.95 1019.02 1019.02 1018.97 1018.88 1018.73 1018.55 1018.35 1018.14 1017.93 1017.74 1017.56 1017.41 1017.27
1007.68 1008.21 1008.69 1009.12 1009.51 1009.86 1010.18 1010.49 1010.80 1011.11 1011.44 1011.79 1012.16 1012.56 1012.96 1013.38 1013.79 1014.20 1014.60 1014.99 1015.36 1015.72 1016.06 1016.39 1016.70 1016.99 1017.27 1017.52 1017.73 1017.90 1018.03 1018.10 1018.12 1018.08 1018.00 1017.87 1017.72 1017.56 1017.39 1017.22 1017.06 1016.92 1016.80 1016.69
1007.89 1008.32 1008.69 1009.03 1009.32 1009.60 1009.86 1010.12 1010.39 1010.67 1010.97 1011.30 1011.64 1012.00 1012.36 1012.72 1013.08 1013.44 1013.78 1014.11 1014.44 1014.76 1015.07 1015.38 1015.68 1015.97 1016.24 1016.48 1016.69 1016.87 1016.99 1017.06 1017.09 1017.06 1016.99 1016.89 1016.77 1016.63 1016.50 1016.37 1016.25 1016.15 1016.07 1015.99
Thickness
5685 5691 5692 5691 5691 5691 5683 5675 5665 5665 5663 5665 5665 5663 5658 5653 5648 5642 5637 5634 5629 5624 5620 5616 5611 5607 5602 5598 5594 5590 5585 5581 5578 5576 5574 5573 5571 5571 5571 5570 5570 5569 5569 5568
5681 5690 5690 5686 5686 5685 5683 5678 5670 5665 5660 5666 5663 5659 5652 5647 5644 5638 5632 5629 5624 5620 5615 5610 5606 5601 5596 5591 5587 5583 5578 5575 5572 5570 5568 5566 5564 5564 5563 5562 5562 5561 5561 5560
5664 5680 5681 5666 5676 5678 5676 5675 5669 5659 5659 5659 5653 5651 5647 5643 5640 5635 5629 5625 5620 5616 5611 5606 5601 5596 5591 5586 5582 5577 5572 5569 5567 5564 5562 5560 5559 5557 5556 5555 5554 5554 5554 5553
5658 5664 5651 5666 5685 5683 5674 5670 5671 5665 5660 5656 5651 5646 5644 5640 5636 5631 5627 5621 5616 5611 5607 5601 5597 5592 5587 5582 5577 5572 5568 5565 5562 5560 5557 5555 5554 5552 5551 5549 5548 5548 5548 5548
5651 5649 5654 5669 5680 5678 5667 5659 5666 5661 5656 5651 5646 5640 5635 5635 5633 5629 5624 5619 5614 5608 5603 5598 5594 5589 5583 5578 5573 5568 5564 5561 5559 5556 5553 5551 5549 5547 5546 5545 5544 5544 5544 5544
5653 5648 5644 5663 5683 5686 5671 5650 5662 5660 5652 5648 5643 5631 5630 5632 5628 5624 5619 5614 5610 5604 5599 5594 5590 5585 5579 5573 5568 5564 5561 5559 5556 5554 5551 5548 5546 5545 5544 5543 5542 5542 5541 5541
5650 5646 5653 5675 5684 5681 5655 5652 5662 5659 5654 5648 5642 5638 5634 5630 5625 5620 5616 5611 5606 5601 5595 5591 5587 5582 5575 5570 5565 5563 5560 5557 5554 5552 5549 5547 5545 5543 5542 5540 5539 5538 5538 5539
5647 5642 5649 5678 5677 5667 5663 5668 5664 5658 5653 5647 5641 5636 5631 5626 5621 5616 5611 5607 5602 5597 5592 5588 5584 5579 5572 5567 5564 5561 5558 5555 5552 5549 5548 5546 5543 5542 5540 5539 5537 5536 5536 5537
5655 5654 5668 5677 5675 5673 5671 5665 5661 5655 5651 5645 5638 5632 5627 5622 5618 5614 5609 5604 5600 5595 5590 5586 5582 5577 5571 5566 5563 5560 5556 5553 5550 5548 5546 5544 5542 5540 5539 5537 5536 5536 5535 5535
5660 5665 5671 5673 5672 5670 5670 5665 5660 5655 5649 5643 5636 5630 5625 5620 5615 5611 5607 5602 5598 5593 5588 5584 5581 5577 5572 5568 5564 5559 5555 5552 5549 5547 5544 5543 5541 5540 5539 5537 5536 5536 5536 5536
5659 5665 5668 5669 5669 5667 5665 5661 5656 5651 5646 5641 5635 5629 5624 5618 5614 5610 5606 5601 5597 5592 5588 5584 5581 5577 5573 5569 5565 5560 5556 5553 5549 5547 5544 5542 5541 5540 5540 5540 5540 5539 5539 5539
5659 5667 5663 5663 5668 5668 5661 5657 5652 5647 5641 5637 5634 5628 5623 5618 5613 5609 5605 5601 5597 5593 5589 5585 5582 5578 5574 5570 5566 5561 5557 5554 5550 5547 5545 5543 5541 5541 5542 5543 5544 5544 5545 5544
5678 5678 5672 5670 5668 5666 5660 5656 5652 5646 5641 5635 5631 5627 5623 5617 5613 5609 5605 5602 5598 5594 5590 5587 5583 5579 5576 5572 5568 5564 5559 5556 5553 5550 5548 5546 5544 5543 5543 5545 5547 5547 5548 5548
5684 5679 5670 5668 5665 5664 5660 5655 5650 5645 5640 5635 5631 5626 5622 5618 5614 5610 5607 5604 5600 5596 5592 5588 5585 5582 5579 5575 5571 5567 5563 5561 5557 5554 5552 5551 5549 5548 5547 5546 5547 5548 5551 5551
5682 5679 5673 5669 5666 5662 5658 5653 5646 5641 5637 5633 5630 5626 5622 5618 5614 5612 5609 5606 5602 5598 5594 5591 5587 5584 5582 5578 5574 5570 5567 5564 5561 5559 5557 5555 5554 5553 5552 5552 5551 5551 5552 5554
5679 5677 5673 5668 5663 5660 5656 5651 5645 5640 5637 5633 5629 5626 5623 5620 5617 5614 5611 5608 5602 5598 5596 5593 5590 5588 5585 5581 5577 5574 5571 5569 5566 5563 5561 5560 5558 5557 5557 5556 5556 5556 5556 5558
5675 5670 5668 5664 5662 5659 5657 5653 5648 5644 5640 5635 5632 5628 5624 5620 5616 5613 5611 5609 5606 5602 5599 5596 5593 5592 5589 5585 5581 5578 5575 5572 5571 5568 5566 5565 5564 5563 5562 5562 5561 5561 5563 5565
5683 5679 5675 5670 5665 5661 5658 5656 5652 5647 5642 5639 5635 5630 5625 5621 5617 5615 5612 5610 5606 5603 5601 5599 5597 5595 5592 5589 5586 5582 5579 5576 5574 5572 5570 5570 5569 5568 5568 5567 5567 5568 5569 5571
5684 5680 5677 5673 5669 5665 5661 5657 5653 5650 5646 5642 5636 5631 5628 5624 5621 5617 5614 5610 5606 5603 5602 5602 5600 5597 5595 5592 5590 5586 5583 5581 5579 5577 5576 5575 5574 5573 5573 5572 5572 5573 5574 5575
5685 5682 5679 5675 5672 5668 5663 5660 5656 5651 5648 5643 5638 5632 5628 5625 5623 5619 5615 5611 5610 5609 5608 5606 5603 5600 5598 5596 5593 5590 5587 5585 5583 5581 5580 5579 5578 5578 5578 5578 5578 5579 5579 5579
5685 5683 5679 5675 5672 5669 5666 5662 5658 5652 5649 5645 5639 5634 5630 5628 5625 5621 5616 5612 5613 5613 5611 5609 5606 5603 5601 5599 5596 5593 5591 5589 5587 5585 5584 5584 5583 5583 5583 5583 5584 5584 5584 5584
5686 5683 5680 5676 5672 5668 5666 5663 5660 5655 5650 5646 5642 5638 5633 5629 5626 5623 5621 5619 5618 5616 5614 5611 5609 5607 5605 5602 5599 5597 5595 5593 5592 5590 5589 5588 5588 5588 5588 5588 5588 5588 5589 5589
5686 5684 5680 5677 5673 5669 5666 5663 5661 5657 5652 5648 5644 5640 5636 5633 5630 5626 5622 5623 5622 5620 5617 5615 5613 5611 5608 5605 5602 5600 5598 5597 5596 5594 5594 5593 5593 5592 5592 5592 5592 5592 5592 5592
5686 5683 5680 5678 5674 5668 5663 5662 5660 5658 5655 5652 5648 5645 5641 5636 5632 5632 5631 5629 5626 5623 5621 5619 5616 5614 5610 5608 5605 5603 5602 5600 5599 5598 5598 5597 5597 5596 5596 5596 5595 5596 5595 5595
5685 5682 5679 5675 5671 5668 5665 5663 5660 5657 5654 5651 5650 5648 5645 5642 5638 5636 5634 5632 5629 5626 5623 5622 5619 5616 5613 5610 5608 5606 5605 5604 5603 5602 5601 5600 5599 5599 5598 5598 5597 5597 5597 5597
5683 5681 5678 5677 5674 5670 5667 5663 5659 5656 5654 5651 5649 5649 5647 5645 5642 5640 5637 5635 5632 5629 5626 5624 5621 5618 5615 5613 5611 5610 5608 5606 5605 5604 5603 5602 5601 5601 5600 5600 5599 5598 5598 5597
5682 5680 5677 5674 5673 5671 5669 5665 5661 5658 5656 5654 5651 5650 5649 5646 5644 5641 5639 5636 5633 5630 5627 5625 5623 5621 5618 5616 5614 5612 5611 5609 5607 5606 5605 5604 5603 5602 5601 5600 5599 5598 5597 5596